Wind_Speed
46 46 43 40 39 37 34 31 28 26 24 21 19 18 15 13 11 9 8 8 7 6 6 6 7 8 9 9 8 8 9 9 10 11 12 12 13 13 13 14 14 15 15 15 16 16 16 16 16 15 14 13 13 12 12 12 12 12 12 12 12 12 13
46 45 45 43 41 39 37 34 30 28 27 24 22 20 18 16 13 11 10 9 8 8 7 7 6 7 8 8 8 8 8 8 8 9 10 11 11 11 11 12 12 12 13 13 14 14 14 13 12 11 10 10 10 9 9 9 9 9 10 10 9 10 10
45 43 45 44 42 41 39 37 33 31 29 26 24 22 20 19 16 14 12 11 10 9 9 8 8 7 7 8 8 8 7 8 8 8 9 9 9 10 10 10 10 10 10 11 11 12 12 11 11 10 9 9 8 8 7 7 7 7 8 8 8 8 9
46 42 43 44 43 42 41 39 36 33 31 28 27 25 23 21 19 17 15 13 12 11 11 10 10 9 8 8 8 8 7 7 8 8 8 9 9 9 9 9 9 9 9 9 9 9 10 10 10 9 8 7 7 6 6 6 6 6 6 6 6 6 7
48 43 43 43 43 44 43 41 39 36 33 30 29 27 25 23 22 20 18 16 14 13 12 12 12 11 10 10 9 9 8 8 7 8 8 9 9 9 9 9 9 8 8 7 7 7 7 8 8 8 7 6 5 5 4 4 4 4 4 4 4 4 4
49 43 43 43 44 46 45 43 41 38 34 32 31 29 28 26 24 23 20 18 16 16 15 13 13 13 13 12 11 10 10 9 8 8 8 8 9 10 10 9 9 8 8 8 7 7 6 6 6 6 6 5 4 3 2 2 1 1 1 1 2 2 3
50 45 44 44 45 47 46 44 43 40 37 35 34 32 30 29 27 25 23 21 19 18 17 16 15 15 15 14 13 12 12 11 10 9 9 9 9 10 10 10 9 9 8 8 8 7 6 6 5 5 5 4 4 3 2 1 1 1 1 1 2 2 3
49 48 46 45 46 48 48 47 45 43 40 38 37 35 33 31 29 26 25 24 23 21 20 19 18 18 18 17 16 15 14 13 13 12 11 10 10 10 10 10 10 9 9 8 8 7 7 6 5 5 5 5 5 5 4 3 2 2 2 2 1 2 2
40 44 47 47 48 49 52 52 49 45 42 41 40 38 36 35 32 28 26 26 26 25 24 23 22 21 21 20 18 17 16 15 15 15 14 13 12 12 11 10 10 10 9 9 8 8 7 7 6 6 5 5 4 4 4 4 3 3 3 2 2 2 2
36 38 43 46 49 52 53 53 50 48 45 43 43 41 39 38 35 30 27 28 29 29 28 26 26 25 23 22 21 20 19 18 17 16 16 16 15 15 14 13 12 11 11 11 10 9 9 8 7 7 6 5 4 4 3 3 3 2 1 2 2 2 3
40 37 36 38 43 49 53 53 50 49 48 45 43 43 42 40 38 34 32 31 31 32 32 31 30 28 26 25 25 23 22 21 19 18 18 17 17 17 17 17 16 15 14 14 13 12 11 10 10 9 8 7 6 6 6 6 5 5 4 3 4 5 5
48 42 35 33 36 42 50 53 51 48 49 47 45 45 44 42 41 38 35 34 33 34 36 36 35 33 31 29 28 26 25 24 23 22 21 19 19 19 18 18 18 18 18 17 16 15 15 14 13 12 12 10 10 10 10 9 9 9 9 7 6 5 7
56 49 41 37 39 42 47 51 51 49 47 46 45 46 46 44 44 41 39 39 36 34 39 41 39 37 35 33 31 29 29 28 27 26 24 22 21 20 19 19 19 18 18 18 18 18 18 17 16 15 14 14 14 14 12 11 11 9 8 7 7 8 9
61 54 46 42 42 45 48 50 51 50 47 44 44 46 47 48 47 44 42 41 38 37 42 45 42 39 39 37 36 34 31 30 31 31 29 27 25 24 22 21 21 21 20 20 20 19 19 18 17 17 17 17 17 16 14 13 13 11 8 8 10 11 12
69 59 52 46 42 44 50 52 52 52 48 44 43 46 49 49 48 47 45 43 40 41 45 47 44 41 40 40 39 37 35 35 36 37 34 31 30 29 27 26 25 25 24 23 22 21 20 18 17 18 20 20 19 18 16 15 14 12 11 11 14 15 15
79 72 64 54 44 43 52 56 52 51 48 43 42 46 49 50 48 48 48 45 44 45 45 46 46 44 42 42 41 40 40 41 41 39 37 35 34 32 31 30 29 28 27 27 26 24 22 20 19 19 21 21 20 19 18 17 16 15 14 15 17 18 18
82 81 74 65 52 46 53 59 54 50 47 40 36 40 46 51 50 49 49 48 48 49 47 46 47 46 45 44 42 44 47 47 46 42 38 37 37 35 34 34 33 31 30 29 28 26 24 23 22 22 23 23 22 21 19 19 19 18 18 19 20 20 21
79 80 77 71 61 50 53 58 56 53 47 36 29 36 46 53 53 51 50 51 53 53 51 49 49 47 45 44 44 47 51 51 50 48 43 39 39 38 37 37 36 35 34 33 32 30 27 26 26 26 26 25 26 25 23 21 21 21 21 22 22 23 23
78 79 76 73 67 57 53 57 59 57 51 42 36 36 48 58 59 54 52 53 54 54 53 50 49 49 48 46 45 46 48 48 49 49 47 44 42 41 40 40 40 39 38 36 34 33 31 29 29 30 30 29 29 29 29 27 26 25 25 25 26 27 27
78 79 76 73 72 64 55 57 63 64 59 53 49 46 51 62 62 58 55 54 54 54 52 49 49 52 52 49 47 48 49 47 45 44 43 42 43 44 44 44 44 42 40 38 37 36 35 33 32 33 33 33 32 33 33 32 31 31 30 29 29 30 31
78 79 77 74 74 71 62 59 65 70 68 65 62 59 61 63 62 60 58 57 57 58 55 50 49 52 51 47 47 51 53 51 48 45 42 41 43 46 48 48 47 44 43 42 41 40 38 37 36 36 37 36 36 37 36 35 35 35 34 34 32 32 33
76 77 77 75 74 74 69 64 66 73 73 69 68 68 66 62 62 63 61 58 59 62 60 56 56 59 57 51 49 52 54 54 54 51 48 47 47 48 50 50 48 46 46 45 44 43 41 40 40 40 40 39 40 41 40 38 37 36 36 36 36 35 35
74 76 77 78 77 75 74 70 68 72 74 70 67 67 66 65 66 66 63 60 60 63 65 62 62 66 64 57 54 56 56 56 56 53 51 51 50 49 51 52 50 49 47 46 45 45 43 42 42 43 43 43 44 45 44 42 41 40 38 38 39 40 41
71 76 77 79 80 78 77 73 70 72 74 70 68 68 67 66 69 69 67 64 60 62 66 67 66 67 66 62 59 60 59 57 57 54 53 53 52 49 50 52 53 51 49 48 47 47 45 44 43 42 43 45 48 48 47 46 45 44 42 41 42 43 45
72 77 79 80 81 81 80 76 73 74 75 71 68 70 70 69 69 70 69 66 61 59 63 68 68 64 60 59 61 64 64 61 58 57 57 57 56 52 50 50 52 52 52 50 49 47 46 43 42 42 44 46 47 47 48 48 47 47 47 47 46 46 47
77 80 81 81 82 82 82 80 77 77 78 75 70 69 71 72 71 69 68 67 65 61 61 63 64 59 54 53 56 61 64 64 60 57 58 59 58 56 52 48 48 50 51 51 49 47 46 44 44 47 50 49 48 47 48 51 51 50 50 51 52 52 51
79 81 82 83 84 84 83 83 82 81 81 80 75 70 70 72 71 67 66 65 66 65 64 64 64 61 59 58 58 60 61 62 62 61 61 61 61 61 60 56 54 52 52 53 53 50 47 45 48 52 54 53 52 49 48 51 53 52 51 51 53 55 55
77 82 83 82 84 86 85 84 85 86 85 84 82 78 75 74 72 68 65 63 64 66 67 68 69 69 66 64 63 64 64 64 66 67 66 66 67 67 67 64 61 57 56 56 55 53 50 48 50 54 55 53 50 45 42 46 51 52 53 53 53 53 55
74 79 84 84 82 84 87 86 86 88 89 88 87 85 84 82 80 77 72 67 65 64 66 68 71 74 75 73 70 68 68 68 70 70 70 70 70 70 69 66 63 60 58 57 56 56 55 54 55 58 56 54 52 48 45 48 52 53 55 56 55 53 52
75 77 82 85 83 82 85 87 88 89 90 91 91 90 89 89 89 87 83 77 72 68 66 66 66 69 74 76 76 75 74 73 73 73 73 72 72 72 71 69 67 66 64 62 62 61 60 60 61 63 60 58 60 59 56 56 60 62 60 59 57 56 54
76 78 80 83 84 82 82 86 88 90 91 92 93 93 92 92 93 93 90 86 81 77 72 68 66 65 66 69 73 76 78 78 78 77 77 75 74 73 72 71 70 70 70 70 69 69 68 66 66 67 67 65 66 68 67 67 70 71 68 64 61 58 57
75 78 80 81 82 81 80 82 87 90 91 92 93 95 93 92 93 95 94 91 88 85 81 75 70 67 64 63 65 70 75 79 80 80 80 80 78 77 75 74 73 72 73 73 74 74 73 72 71 71 72 71 71 73 74 74 74 72 70 70 68 65 63
75 78 80 80 80 79 78 79 83 88 90 91 92 94 94 92 91 92 94 95 92 90 87 84 79 74 70 67 65 64 67 73 78 80 80 80 80 79 78 76 75 75 75 76 77 77 77 77 77 76 75 75 75 76 76 76 76 74 72 73 74 73 71
74 77 80 82 82 80 77 75 78 83 87 89 90 92 94 93 90 88 89 93 95 94 92 91 88 84 80 76 73 69 65 66 70 74 77 78 78 78 78 78 77 76 76 77 80 81 81 81 80 80 79 79 79 79 78 78 78 77 75 75 76 77 77
71 74 77 81 84 85 82 78 76 78 82 86 88 90 92 92 91 88 86 88 91 93 93 93 93 91 87 83 79 76 71 68 67 69 72 75 77 77 77 77 77 77 76 77 80 82 83 84 84 84 83 82 81 81 81 81 81 80 80 79 79 79 79
67 71 74 78 82 86 87 84 80 78 80 83 86 88 90 92 91 89 86 85 87 89 90 92 94 93 91 87 82 78 76 73 71 71 72 75 77 78 78 79 79 79 78 79 80 82 83 84 85 85 85 85 84 84 84 84 84 84 84 84 83 83 83
62 66 70 75 78 82 86 88 86 82 80 82 84 87 88 90 91 90 87 85 85 86 87 89 92 93 92 90 86 82 79 76 73 72 73 76 79 81 81 81 82 81 81 81 82 83 83 83 84 85 87 87 88 88 88 88 88 88 88 89 88 88 88
60 61 65 71 75 79 82 86 88 87 83 82 83 86 88 88 90 91 90 88 87 86 84 85 87 90 91 91 89 86 83 79 75 73 73 75 78 80 82 82 83 83 83 83 84 85 86 87 87 88 89 90 91 92 92 93 93 93 94 94 94 93 93
Wind_Direction
222 227 222 218 220 224 224 223 223 226 226 226 226 226 222 216 214 210 200 187 174 158 145 136 122 114 106 100 99 100 101 101 99 97 96 96 97 98 99 100 103 107 112 117 120 121 123 124 125 124 120 118 115 107 101 99 98 96 95 95 93 87 80
216 224 224 221 222 225 224 222 221 224 225 224 225 226 225 220 215 215 211 200 192 184 172 162 152 140 127 118 112 108 109 110 109 108 105 104 104 103 104 105 107 109 113 118 122 125 128 130 130 130 128 128 124 116 107 103 101 99 97 96 92 86 80
214 219 222 223 223 223 223 221 220 222 224 223 224 226 226 223 219 217 217 212 203 199 192 184 177 169 157 142 132 124 120 118 118 118 117 115 113 111 110 110 112 114 116 121 125 128 131 133 134 133 133 133 129 122 115 110 107 103 100 97 92 85 81
215 215 217 221 224 224 223 222 221 221 222 223 223 224 225 226 223 219 219 219 214 208 204 199 194 190 184 172 158 148 139 132 128 125 123 123 122 120 120 119 119 122 124 127 131 135 136 138 138 139 138 136 131 125 118 112 107 103 97 92 86 82 79
217 214 214 217 223 226 225 223 223 222 222 222 222 223 225 226 226 224 220 222 222 217 212 207 205 202 200 196 186 172 163 153 145 139 132 130 128 127 127 127 128 129 131 135 139 143 146 147 146 148 148 146 142 134 123 115 105 97 89 79 72 64 61
218 215 214 216 220 224 225 224 223 222 222 221 220 222 224 225 226 226 224 223 224 225 220 214 211 210 209 207 203 195 186 176 167 160 151 145 142 138 136 135 137 138 138 140 142 145 150 153 155 155 154 153 153 149 139 129 111 82 56 30 15 9 11
222 219 217 218 220 223 225 224 223 224 224 223 221 222 224 225 226 227 227 225 226 229 227 222 217 215 215 213 211 207 203 195 188 182 175 169 162 156 153 151 150 150 150 148 147 147 146 146 146 145 146 143 140 135 125 101 65 20 359 349 343 335 328
225 223 219 220 222 224 227 226 223 224 225 223 222 223 223 224 225 226 229 230 228 229 231 229 225 221 220 219 216 213 210 206 202 199 196 191 184 179 175 171 168 166 165 164 162 159 155 152 150 145 140 136 130 123 114 101 80 58 42 32 15 342 323
219 223 221 222 224 226 228 227 225 224 224 223 223 223 221 221 222 223 228 235 234 231 231 232 231 228 225 223 222 219 216 212 209 208 208 207 204 200 197 193 189 186 184 182 180 176 174 173 173 172 167 158 146 137 130 119 99 82 63 51 38 4 353
206 214 220 225 227 227 227 227 225 224 224 224 224 223 221 220 221 218 221 231 237 237 233 233 234 233 230 229 228 226 223 219 216 214 213 213 214 214 213 212 209 206 204 202 198 195 194 194 194 194 194 189 185 182 174 158 135 108 30 351 336 330 338
198 202 213 224 226 225 226 225 222 222 225 226 226 226 223 220 219 217 213 219 232 240 238 235 234 234 233 232 231 230 229 227 223 222 219 216 217 218 219 221 221 220 219 216 212 210 208 207 206 204 200 196 199 204 203 199 191 186 200 254 287 301 310
199 197 204 214 216 217 221 224 221 220 223 225 225 226 224 219 219 219 213 213 223 235 239 237 234 233 232 232 233 233 233 232 230 228 226 222 221 220 221 223 226 228 229 227 224 223 221 219 216 212 209 205 205 210 215 219 218 206 198 208 232 251 267
199 197 199 207 209 208 213 218 218 218 220 222 223 224 224 220 220 220 216 214 218 227 237 239 236 232 231 230 230 232 234 234 234 233 231 228 227 226 226 226 228 231 233 234 233 232 232 232 229 224 222 220 219 222 225 223 224 227 222 222 231 231 238
199 197 200 207 212 210 208 210 212 214 218 221 223 224 224 222 221 221 218 217 217 221 231 238 237 234 233 232 229 229 232 236 237 235 232 229 228 228 229 228 229 231 234 236 238 239 239 240 239 236 234 232 229 232 237 232 228 233 235 241 251 251 248
201 201 206 211 216 216 210 207 208 211 216 220 221 223 224 223 223 223 221 221 220 222 228 233 235 235 235 235 233 229 227 230 234 232 229 228 229 229 229 230 230 231 234 236 239 242 244 244 244 243 242 240 236 236 242 241 236 234 235 241 249 250 250
205 209 213 213 213 213 209 206 205 207 212 216 217 219 222 224 225 225 222 222 223 226 231 233 234 235 235 237 238 236 231 230 232 231 228 228 230 232 233 234 235 235 235 237 239 242 245 247 246 245 245 246 243 242 245 246 243 242 242 246 249 249 250
208 211 214 212 211 211 209 207 205 204 208 214 221 227 227 224 225 226 223 220 222 226 230 232 233 234 236 238 241 241 239 236 236 235 233 232 232 234 237 238 238 238 238 239 240 242 245 248 248 248 249 248 246 245 247 246 244 246 249 250 250 252 254
210 211 212 211 211 213 212 210 207 206 204 203 217 238 239 230 224 225 226 223 222 226 229 233 236 236 237 240 242 243 241 239 238 237 236 235 234 234 238 239 240 240 239 239 241 242 244 246 249 251 253 252 251 249 248 244 242 245 250 254 255 257 258
211 211 210 210 210 213 213 211 208 205 199 189 190 212 230 230 223 222 225 223 223 229 232 235 238 238 237 237 238 238 237 236 237 237 235 236 235 234 236 239 240 241 241 241 243 245 246 247 248 251 255 255 254 253 253 251 248 248 252 258 261 262 262
211 211 210 210 210 212 213 212 208 205 199 190 183 191 213 224 222 218 220 219 220 225 229 230 234 235 232 229 230 233 233 230 230 232 234 238 238 235 236 239 241 243 245 245 246 247 248 249 249 251 255 256 255 255 254 253 254 254 258 262 264 265 263
211 211 210 210 211 211 212 211 209 206 203 198 195 200 212 220 219 215 216 216 216 218 222 225 227 224 221 221 226 230 231 228 227 230 236 241 241 238 238 240 242 244 246 247 248 247 248 250 252 253 255 257 258 257 255 252 252 255 260 265 267 266 264
210 211 210 210 211 211 212 211 208 207 207 206 206 211 217 219 217 215 214 215 216 217 219 223 224 222 224 231 233 230 229 228 229 234 240 243 244 242 240 241 242 243 245 248 249 248 248 250 253 255 257 259 260 261 258 254 253 255 259 264 267 267 266
211 211 211 210 211 212 214 213 211 208 209 209 210 213 216 218 218 217 216 216 216 217 220 224 225 226 230 236 236 232 232 234 235 238 241 243 245 244 241 241 243 242 243 246 249 250 251 253 255 258 260 260 261 261 260 258 257 257 257 259 261 263 265
212 212 212 211 211 213 214 214 213 211 210 211 212 213 214 217 218 218 218 217 216 217 220 224 227 228 232 237 237 235 234 235 236 238 241 242 243 245 244 245 245 244 244 245 248 250 253 255 257 259 260 262 262 262 260 259 259 259 257 255 255 257 260
212 213 212 211 211 213 215 213 212 211 210 210 212 214 215 216 216 216 216 216 215 216 218 222 225 229 234 239 240 237 236 236 237 239 241 242 242 244 245 246 246 245 245 245 246 248 250 253 258 259 260 262 262 262 262 262 261 261 259 257 255 255 256
213 213 213 213 212 213 215 214 211 210 210 209 209 211 214 215 214 213 214 215 215 216 217 219 222 226 229 233 236 237 236 237 237 238 239 240 240 238 237 239 243 245 244 243 245 248 250 253 257 259 260 260 260 264 269 269 267 265 263 261 259 257 255
214 213 212 213 213 213 215 215 213 212 211 210 209 209 210 212 212 211 212 215 216 218 220 221 223 225 228 231 234 236 235 234 233 233 234 235 235 234 234 237 242 245 246 246 248 250 252 252 254 257 258 259 262 267 270 269 268 265 264 265 264 260 257
216 215 213 213 214 215 215 216 215 215 214 213 211 211 211 211 212 212 214 217 219 221 223 225 226 228 230 232 233 234 234 233 233 234 235 236 237 239 241 243 245 246 247 249 250 251 251 250 250 253 254 257 262 266 264 262 263 264 264 266 266 262 259
217 217 215 213 215 216 216 217 217 217 217 216 215 215 216 217 218 219 220 221 222 223 223 225 227 229 232 233 234 234 234 234 236 238 239 240 242 245 247 247 246 246 247 248 249 250 250 250 251 253 253 252 255 258 258 259 261 264 265 266 265 264 263
217 219 217 215 215 217 218 219 219 219 219 219 219 219 220 221 223 225 226 226 226 225 224 225 227 229 231 233 234 235 235 235 237 239 241 242 244 246 248 248 247 248 249 250 251 252 252 251 252 253 254 252 250 249 251 254 258 264 267 266 265 266 267
217 219 219 218 217 218 220 221 221 221 221 221 221 222 223 224 225 228 229 230 229 228 227 228 229 229 230 232 233 234 235 237 238 239 241 242 244 246 248 248 248 249 251 252 253 254 254 253 253 254 255 255 254 253 252 254 258 262 265 264 263 264 265
216 218 219 219 219 220 221 222 223 223 222 222 223 224 225 226 227 228 229 230 231 230 229 229 231 232 233 234 234 234 234 236 238 239 241 243 244 246 247 248 249 250 251 253 254 255 255 255 254 255 255 257 258 258 258 258 259 261 262 262 261 261 261
217 218 219 219 219 220 221 223 224 224 224 224 224 225 227 228 229 230 231 231 231 231 231 231 233 234 236 238 238 237 236 237 238 240 242 244 245 246 247 248 249 250 251 252 253 254 255 256 256 256 256 257 258 259 260 261 261 260 260 261 262 261 261
218 219 219 219 219 220 222 224 225 226 226 226 226 226 227 229 230 232 233 233 232 231 232 233 235 236 238 240 241 240 240 239 240 241 243 245 246 248 248 249 250 251 251 252 253 254 255 256 256 257 257 257 258 259 260 260 261 261 260 261 262 262 263
220 220 220 220 220 221 223 225 226 227 227 228 228 227 228 229 231 232 234 234 234 234 233 234 236 238 239 241 241 241 241 242 242 243 244 245 247 248 250 250 250 250 250 251 252 253 254 255 256 257 258 258 258 258 259 259 260 260 261 261 261 262 263
222 222 222 223 222 222 223 225 227 228 228 229 229 228 228 229 231 232 233 235 236 236 236 236 237 238 239 241 241 241 241 242 243 244 244 245 246 247 249 250 250 249 248 248 249 251 253 254 255 256 257 258 258 258 259 259 259 260 260 261 261 261 262
226 225 225 226 225 225 225 226 227 228 230 230 230 230 230 230 231 232 233 233 235 237 238 239 239 239 240 241 242 242 241 241 242 244 244 244 244 245 246 247 247 247 246 247 248 250 251 252 254 255 256 257 258 259 259 260 260 261 261 261 261 262 262
229 229 229 229 229 229 228 228 228 229 230 231 231 231 231 231 232 232 232 232 233 235 237 239 239 240 241 241 242 243 243 242 241 242 243 243 244 245 246 246 246 245 245 246 248 250 252 253 254 255 256 257 258 259 259 260 261 262 262 262 263 263 263
Height
10960 10962 10966 10970 10973 10976 10979 10981 10984 10986 10987 10989 10990 10992 10993 10993 10994 10994 10995 10995 10996 10996 10996 10997 10996 10996 10995 10995 10995 10995 10994 10994 10994 10993 10993 10993 10993 10994 10993 10993 10993 10993 10993 10993 10994 10994 10994 10995 10995 10996 10996 10997 10997 10997 10997 10997 10997 10997 10998 10998 10997 10997 10997
10957 10959 10963 10967 10970 10973 10976 10979 10981 10983 10985 10987 10989 10990 10992 10993 10993 10994 10994 10995 10996 10996 10997 10997 10997 10997 10996 10996 10996 10996 10995 10995 10995 10995 10994 10994 10994 10995 10995 10995 10995 10995 10995 10995 10995 10995 10996 10996 10997 10997 10997 10998 10998 10998 10998 10999 10999 10999 10999 10999 10999 10999 10998
10954 10956 10959 10964 10967 10970 10973 10975 10978 10980 10983 10985 10987 10989 10991 10992 10993 10993 10994 10995 10995 10996 10997 10997 10997 10997 10997 10996 10996 10996 10996 10996 10996 10996 10996 10995 10995 10996 10996 10996 10997 10997 10997 10997 10997 10997 10997 10997 10998 10998 10999 10999 10999 10999 11000 11000 11000 11000 11001 11000 11000 11000 11000
10951 10953 10956 10960 10964 10967 10970 10972 10975 10978 10980 10983 10985 10987 10989 10991 10992 10993 10994 10995 10995 10996 10996 10997 10997 10997 10997 10997 10997 10997 10997 10997 10997 10997 10997 10997 10997 10997 10997 10997 10998 10998 10999 10999 10999 10999 10999 10999 10999 10999 11000 11000 11000 11001 11001 11001 11002 11002 11002 11002 11002 11001 11001
10947 10950 10953 10957 10960 10963 10966 10969 10972 10975 10978 10980 10983 10985 10987 10989 10991 10992 10993 10994 10995 10995 10996 10996 10997 10997 10997 10997 10997 10997 10997 10998 10998 10998 10998 10998 10998 10998 10998 10998 10999 10999 10999 11000 11000 11000 11000 11000 11001 11001 11001 11001 11002 11002 11002 11003 11003 11003 11003 11003 11003 11002 11002
10943 10947 10950 10953 10956 10958 10961 10965 10969 10972 10975 10978 10980 10982 10984 10986 10988 10990 10992 10993 10994 10995 10995 10996 10996 10996 10997 10997 10997 10997 10997 10998 10998 10998 10998 10998 10998 10999 10999 10999 10999 11000 11000 11000 11001 11001 11002 11002 11002 11002 11002 11002 11003 11003 11003 11003 11003 11003 11004 11003 11003 11003 11003
10940 10943 10947 10950 10952 10954 10957 10962 10966 10969 10973 10976 10978 10980 10982 10984 10986 10989 10991 10992 10993 10994 10995 10995 10995 10996 10996 10996 10997 10997 10997 10997 10998 10998 10998 10999 10999 10999 10999 10999 10999 11000 11000 11001 11001 11002 11002 11003 11003 11003 11003 11003 11004 11004 11004 11004 11004 11004 11004 11004 11004 11004 11003
10937 10940 10944 10946 10949 10951 10953 10958 10962 10966 10970 10973 10975 10977 10980 10982 10985 10987 10989 10991 10992 10993 10993 10994 10994 10994 10995 10995 10996 10996 10996 10997 10997 10998 10998 10998 10999 10999 10999 10999 11000 11000 11000 11001 11001 11002 11003 11003 11004 11004 11004 11004 11004 11004 11004 11004 11004 11004 11004 11004 11004 11004 11004
10932 10937 10942 10945 10946 10948 10949 10953 10959 10963 10966 10969 10971 10974 10977 10979 10982 10986 10989 10990 10990 10991 10992 10992 10993 10993 10993 10994 10995 10995 10995 10996 10996 10996 10997 10997 10998 10999 10999 10999 11000 11000 11000 11001 11002 11002 11003 11003 11004 11004 11005 11005 11005 11005 11004 11004 11004 11004 11004 11004 11005 11005 11005
10924 10931 10938 10942 10944 10945 10946 10949 10955 10959 10962 10965 10967 10970 10974 10976 10979 10984 10987 10989 10989 10989 10990 10990 10990 10991 10992 10992 10993 10994 10994 10995 10995 10995 10995 10996 10997 10998 10998 10999 10999 11000 11000 11001 11001 11002 11003 11003 11004 11005 11005 11005 11005 11005 11004 11003 11003 11003 11005 11005 11006 11006 11006
10916 10920 10927 10934 10939 10943 10943 10944 10950 10955 10958 10960 10964 10967 10970 10973 10976 10978 10981 10984 10986 10988 10988 10988 10988 10988 10990 10990 10991 10992 10993 10993 10994 10994 10994 10994 10995 10996 10997 10998 10998 10999 10999 11000 11000 11001 11002 11002 11003 11004 11005 11005 11005 11005 11004 11003 11002 11001 11002 11004 11005 11007 11007
10909 10911 10916 10922 10929 10936 10938 10939 10943 10949 10952 10955 10959 10962 10965 10969 10972 10974 10976 10979 10982 10985 10985 10983 10984 10985 10986 10988 10989 10990 10991 10992 10992 10992 10992 10993 10994 10994 10995 10996 10997 10998 10999 11000 11000 11000 11001 11001 11002 11003 11003 11004 11003 11003 11002 11002 11001 11000 11000 11001 11002 11005 11007
10902 10905 10908 10911 10917 10924 10929 10932 10937 10943 10946 10950 10954 10957 10960 10965 10967 10969 10972 10973 10976 10980 10979 10977 10979 10981 10982 10984 10985 10987 10988 10989 10989 10990 10991 10991 10992 10993 10994 10995 10996 10997 10998 10999 10999 11000 11001 11001 11002 11003 11003 11003 11002 11001 11000 11000 11001 11002 11003 11003 11002 11002 11004
10896 10899 10901 10904 10909 10915 10920 10924 10930 10937 10941 10945 10949 10952 10955 10959 10962 10964 10967 10968 10971 10973 10972 10971 10975 10978 10979 10980 10981 10983 10984 10985 10985 10985 10986 10988 10989 10991 10992 10993 10994 10995 10996 10997 10998 10999 11000 11000 11001 11002 11002 11002 11001 11001 11000 11000 11001 11001 11002 11003 11002 11001 11002
10889 10891 10895 10900 10905 10909 10914 10920 10925 10931 10936 10940 10944 10948 10951 10954 10957 10960 10962 10964 10966 10967 10965 10965 10970 10974 10976 10977 10978 10979 10980 10977 10974 10976 10981 10984 10985 10986 10988 10989 10990 10991 10992 10994 10995 10997 10998 10999 11000 11001 11001 11000 11000 11000 11000 11000 11001 11001 11001 11001 11001 11000 11000
10881 10883 10888 10894 10900 10904 10909 10914 10920 10926 10931 10936 10941 10945 10948 10951 10953 10955 10957 10960 10961 10962 10961 10962 10966 10970 10972 10973 10974 10975 10974 10969 10968 10972 10977 10979 10981 10983 10985 10986 10986 10987 10989 10990 10991 10993 10995 10997 10998 10998 10999 10999 11000 11000 11000 11000 11000 11000 10999 10999 10999 10999 10999
10873 10876 10881 10888 10894 10898 10903 10909 10917 10923 10928 10935 10941 10944 10945 10947 10949 10951 10953 10955 10956 10957 10957 10958 10961 10964 10967 10969 10970 10970 10968 10966 10967 10971 10974 10976 10978 10980 10982 10983 10984 10985 10986 10987 10988 10990 10993 10994 10995 10996 10996 10997 10998 10998 10998 10999 10998 10998 10998 10998 10998 10998 10998
10865 10870 10875 10882 10888 10892 10896 10904 10912 10919 10926 10933 10941 10945 10942 10941 10945 10947 10948 10950 10952 10952 10954 10955 10957 10960 10963 10965 10965 10963 10962 10963 10965 10968 10971 10973 10975 10976 10978 10980 10981 10982 10983 10984 10986 10988 10990 10992 10993 10993 10994 10994 10995 10996 10996 10996 10996 10996 10996 10996 10996 10996 10996
10858 10864 10870 10877 10883 10886 10890 10896 10903 10912 10919 10923 10928 10933 10931 10930 10936 10940 10941 10944 10947 10948 10951 10953 10954 10956 10958 10960 10958 10956 10956 10959 10961 10964 10967 10969 10971 10973 10974 10975 10976 10977 10979 10981 10983 10985 10987 10989 10990 10991 10991 10992 10992 10993 10993 10994 10994 10994 10993 10993 10994 10994 10994
10851 10857 10865 10872 10878 10880 10883 10889 10895 10903 10910 10912 10913 10915 10916 10919 10927 10932 10934 10938 10941 10944 10947 10950 10951 10952 10953 10955 10955 10951 10951 10956 10959 10960 10963 10965 10967 10969 10970 10970 10971 10973 10976 10978 10980 10982 10984 10986 10988 10988 10989 10989 10990 10990 10990 10991 10991 10991 10991 10991 10991 10991 10991
10844 10851 10859 10865 10869 10872 10876 10881 10887 10893 10899 10904 10906 10906 10909 10914 10920 10924 10927 10931 10935 10938 10942 10945 10947 10947 10947 10948 10949 10946 10945 10951 10954 10955 10958 10960 10962 10964 10965 10966 10968 10970 10972 10973 10975 10977 10980 10982 10983 10985 10985 10986 10986 10986 10986 10987 10988 10988 10988 10989 10989 10988 10988
10839 10844 10851 10856 10860 10865 10868 10873 10880 10885 10889 10895 10899 10901 10905 10910 10913 10916 10920 10924 10928 10933 10936 10939 10941 10942 10941 10941 10941 10939 10939 10943 10947 10949 10952 10954 10956 10958 10960 10962 10965 10966 10967 10968 10970 10972 10975 10977 10979 10980 10981 10982 10981 10981 10981 10983 10984 10984 10985 10985 10986 10985 10984
10832 10836 10842 10847 10852 10856 10860 10866 10872 10877 10881 10886 10890 10894 10899 10903 10906 10909 10913 10916 10921 10925 10928 10931 10932 10934 10934 10935 10935 10934 10935 10936 10939 10943 10946 10948 10951 10953 10955 10957 10960 10961 10963 10964 10966 10968 10971 10973 10975 10975 10976 10976 10975 10975 10976 10978 10979 10980 10980 10981 10981 10981 10980
10823 10827 10832 10838 10843 10848 10853 10860 10866 10870 10874 10879 10883 10887 10891 10895 10899 10902 10906 10909 10913 10917 10920 10923 10924 10926 10927 10927 10928 10929 10929 10930 10933 10937 10940 10943 10947 10950 10952 10953 10955 10956 10959 10961 10963 10965 10968 10970 10971 10972 10972 10970 10968 10969 10970 10972 10973 10974 10974 10975 10975 10976 10976
10813 10818 10823 10829 10834 10839 10845 10851 10857 10862 10866 10872 10876 10881 10885 10888 10892 10895 10898 10901 10905 10909 10911 10913 10916 10918 10919 10919 10920 10923 10924 10925 10928 10932 10935 10939 10944 10946 10946 10948 10949 10951 10954 10956 10959 10962 10965 10967 10969 10969 10966 10964 10963 10964 10964 10965 10967 10968 10968 10969 10969 10969 10969
10804 10809 10815 10820 10826 10831 10837 10843 10849 10854 10859 10864 10869 10874 10879 10882 10885 10888 10890 10894 10898 10901 10903 10905 10908 10909 10910 10911 10913 10915 10918 10921 10924 10927 10930 10934 10937 10938 10939 10941 10943 10946 10948 10951 10955 10958 10961 10965 10966 10962 10958 10957 10958 10959 10959 10959 10960 10961 10962 10962 10962 10962 10962
10797 10802 10807 10813 10818 10823 10829 10835 10841 10846 10851 10856 10862 10868 10872 10875 10878 10880 10883 10887 10891 10893 10895 10898 10901 10902 10903 10905 10907 10909 10913 10916 10919 10922 10924 10926 10928 10929 10931 10934 10937 10940 10942 10945 10949 10952 10957 10961 10961 10955 10952 10952 10952 10953 10954 10952 10953 10954 10954 10954 10954 10954 10955
10791 10796 10801 10806 10811 10816 10821 10828 10834 10839 10843 10849 10854 10859 10863 10867 10869 10872 10876 10880 10883 10886 10889 10891 10894 10896 10897 10899 10901 10903 10908 10912 10913 10915 10917 10919 10921 10922 10925 10928 10931 10934 10937 10939 10942 10946 10951 10953 10951 10947 10947 10947 10947 10948 10947 10946 10946 10947 10946 10946 10946 10946 10948
10785 10790 10795 10800 10805 10809 10814 10820 10825 10830 10836 10841 10846 10851 10855 10858 10861 10864 10868 10872 10876 10879 10882 10884 10887 10889 10891 10892 10894 10897 10902 10906 10907 10908 10910 10913 10915 10916 10919 10921 10924 10927 10930 10932 10934 10938 10942 10943 10942 10940 10941 10943 10942 10942 10941 10940 10939 10939 10938 10938 10939 10940 10942
10780 10784 10789 10795 10799 10804 10809 10813 10818 10823 10828 10833 10838 10843 10846 10850 10853 10856 10859 10864 10868 10872 10874 10877 10879 10881 10883 10885 10887 10890 10894 10897 10899 10901 10903 10906 10908 10909 10911 10914 10916 10919 10921 10924 10926 10929 10932 10934 10934 10933 10934 10936 10936 10934 10934 10934 10932 10931 10931 10932 10934 10935 10936
10775 10779 10784 10790 10794 10799 10803 10807 10810 10815 10820 10825 10830 10834 10839 10842 10845 10848 10851 10855 10860 10864 10867 10869 10871 10873 10875 10877 10879 10882 10885 10888 10891 10893 10895 10897 10900 10902 10903 10906 10908 10911 10913 10915 10917 10919 10922 10925 10925 10925 10926 10929 10928 10927 10927 10928 10927 10925 10925 10926 10928 10929 10930
10769 10773 10779 10784 10788 10793 10797 10800 10803 10807 10812 10818 10822 10826 10831 10835 10838 10841 10844 10847 10851 10855 10859 10861 10863 10865 10867 10870 10872 10874 10877 10879 10882 10884 10887 10889 10891 10894 10896 10898 10900 10903 10905 10907 10909 10910 10912 10914 10916 10917 10918 10919 10919 10918 10919 10920 10920 10919 10919 10918 10920 10922 10923
10765 10768 10773 10779 10784 10788 10791 10794 10797 10801 10805 10810 10815 10819 10823 10827 10831 10834 10837 10840 10843 10846 10850 10853 10855 10857 10860 10862 10864 10866 10868 10871 10873 10876 10878 10880 10882 10885 10887 10889 10891 10894 10896 10898 10900 10901 10903 10904 10906 10907 10909 10910 10911 10910 10910 10911 10911 10912 10911 10911 10911 10913 10914
10759 10763 10768 10773 10778 10782 10785 10788 10791 10794 10798 10802 10807 10811 10815 10818 10822 10826 10829 10832 10835 10839 10841 10844 10846 10849 10851 10854 10856 10858 10861 10863 10865 10867 10869 10871 10873 10876 10878 10880 10882 10884 10887 10889 10890 10892 10894 10895 10896 10897 10899 10900 10901 10902 10902 10902 10902 10902 10903 10903 10903 10904 10904
10754 10759 10763 10767 10771 10775 10778 10781 10784 10787 10790 10794 10798 10803 10806 10809 10813 10817 10820 10823 10827 10830 10833 10835 10837 10840 10843 10846 10848 10851 10853 10855 10857 10859 10861 10863 10865 10867 10869 10871 10873 10875 10877 10879 10881 10882 10884 10885 10887 10888 10889 10890 10891 10892 10893 10893 10893 10893 10894 10894 10894 10895 10895
10749 10754 10758 10760 10764 10767 10771 10773 10776 10780 10783 10787 10790 10794 10798 10801 10805 10808 10812 10815 10818 10821 10824 10827 10829 10831 10834 10837 10840 10843 10845 10847 10849 10851 10853 10855 10856 10858 10860 10862 10864 10866 10868 10870 10871 10873 10874 10876 10877 10878 10879 10880 10881 10881 10882 10883 10883 10884 10884 10884 10885 10885 10886
10745 10749 10752 10754 10757 10760 10763 10766 10769 10773 10776 10780 10783 10786 10790 10793 10797 10800 10804 10806 10809 10812 10815 10818 10820 10823 10826 10828 10831 10834 10836 10839 10841 10842 10844 10846 10847 10849 10850 10852 10854 10856 10858 10860 10861 10862 10864 10865 10866 10867 10868 10869 10870 10871 10872 10872 10873 10873 10873 10874 10874 10875 10875
10741 10744 10747 10749 10751 10754 10756 10759 10762 10766 10769 10772 10775 10778 10782 10785 10789 10792 10795 10798 10801 10805 10808 10809 10811 10814 10817 10820 10823 10825 10827 10830 10832 10834 10835 10837 10838 10839 10841 10842 10844 10846 10848 10850 10851 10852 10853 10854 10855 10857 10858 10859 10859 10860 10861 10861 10862 10862 10862 10862 10862 10863 10863